FDX2447 MKJS-KJFK

Flight info

Callsign FDX2447
Flight time N/A
Altitude 41000
Route PIBLO UR625 ENAMO Y307 JAZZI DCT SAGGY DCT CHIEZ Q161 KALDA Q108 SIE CAMRN5
Aircraft B772/H-SDE2E3FGHIJ5LORVWXY/LB1D1

Departure

Time 2026-04-30 18:48
Airport Sangster International Airport (MKJS)

Arrival

Time N/A
Airport John F. Kennedy International Airport (KJFK)
Time Latitude Longitude Altitude Speed Heading
2026-04-30 18:40 18.49757 -77.92140 26 ft 0 kts 66°
2026-04-30 18:45 18.49763 -77.92136 26 ft 0 kts 25°
2026-04-30 18:45 18.49765 -77.92135 26 ft 1 kts 17°
2026-04-30 18:45 18.49779 -77.92139 26 ft 3 kts 327°
2026-04-30 18:46 18.49791 -77.92168 25 ft 10 kts 291°
2026-04-30 18:46 18.49779 -77.92271 24 ft 16 kts 243°
2026-04-30 18:46 18.49751 -77.92390 23 ft 16 kts 296°
2026-04-30 18:46 18.49788 -77.92423 23 ft 4 kts 331°
2026-04-30 18:47 18.49834 -77.92447 23 ft 9 kts 351°
2026-04-30 18:47 18.49898 -77.92411 25 ft 10 kts 66°
2026-04-30 18:47 18.49908 -77.92387 25 ft 0 kts 66°
2026-04-30 18:48 18.49912 -77.92376 25 ft 13 kts 65°
2026-04-30 18:48 18.50052 -77.92059 25 ft 90 kts 66°
2026-04-30 18:48 18.50439 -77.91170 41 ft 169 kts 64°
2026-04-30 18:48 18.50995 -77.89959 650 ft 193 kts 62°
2026-04-30 18:49 18.51823 -77.88663 1204 ft 234 kts 45°
2026-04-30 18:49 18.53212 -77.87894 2250 ft 234 kts 15°
2026-04-30 18:49 18.54857 -77.87623 2873 ft 250 kts
2026-04-30 18:49 18.56629 -77.87396 3599 ft 262 kts
2026-04-30 18:50 18.58457 -77.87167 4484 ft 267 kts
2026-04-30 18:50 18.60301 -77.86935 5381 ft 271 kts
2026-04-30 18:50 18.62202 -77.86697 6282 ft 275 kts
2026-04-30 18:50 18.64105 -77.86459 7129 ft 280 kts
2026-04-30 18:51 18.66042 -77.86216 7941 ft 285 kts
2026-04-30 18:51 18.68017 -77.85968 8751 ft 290 kts
2026-04-30 18:51 18.70048 -77.85713 9508 ft 296 kts
2026-04-30 18:51 18.72098 -77.85457 10342 ft 300 kts
2026-04-30 18:52 18.74218 -77.85191 10882 ft 316 kts
2026-04-30 18:52 18.76457 -77.84910 11383 ft 332 kts
2026-04-30 18:52 18.78802 -77.84616 11870 ft 347 kts
2026-04-30 18:52 18.81284 -77.84305 12329 ft 362 kts
2026-04-30 18:53 18.83838 -77.83984 12758 ft 377 kts
2026-04-30 18:53 18.86476 -77.83652 13231 ft 389 kts
2026-04-30 18:53 18.89215 -77.83308 13944 ft 394 kts
2026-04-30 18:53 18.91931 -77.82967 14756 ft 395 kts
2026-04-30 18:54 18.94649 -77.82626 15510 ft 398 kts
2026-04-30 18:54 18.97411 -77.82279 16218 ft 402 kts
2026-04-30 18:54 19.00191 -77.81930 16947 ft 405 kts
2026-04-30 18:54 19.03004 -77.81576 17686 ft 407 kts
2026-04-30 18:55 19.05828 -77.81221 18389 ft 411 kts
2026-04-30 18:55 19.11591 -77.80496 19737 ft 419 kts
2026-04-30 18:55 19.14497 -77.80131 20384 ft 423 kts
2026-04-30 18:56 19.20435 -77.79383 21697 ft 430 kts
2026-04-30 18:56 19.23426 -77.79006 22331 ft 434 kts
2026-04-30 18:56 19.26451 -77.78625 22958 ft 438 kts
2026-04-30 18:57 19.32519 -77.77860 24142 ft 445 kts
2026-04-30 18:57 19.35617 -77.77470 24730 ft 448 kts
2026-04-30 18:57 19.38751 -77.77074 25242 ft 453 kts
2026-04-30 18:58 19.45066 -77.76277 26323 ft 461 kts
2026-04-30 18:58 19.48291 -77.75870 26821 ft 465 kts
2026-04-30 18:58 19.51528 -77.75461 27318 ft 469 kts
2026-04-30 18:59 19.58070 -77.74634 28260 ft 477 kts
2026-04-30 19:00 19.68067 -77.73367 29653 ft 488 kts
2026-04-30 19:00 19.71490 -77.72934 30124 ft 491 kts
2026-04-30 19:00 19.78245 -77.72076 31283 ft 490 kts
2026-04-30 19:01 19.85026 -77.71215 32437 ft 488 kts
2026-04-30 19:01 19.88407 -77.70785 32982 ft 488 kts
2026-04-30 19:02 19.95149 -77.69927 34148 ft 487 kts
2026-04-30 19:02 20.01859 -77.69073 35311 ft 485 kts
2026-04-30 19:03 20.08598 -77.68214 36264 ft 485 kts
2026-04-30 19:03 20.15369 -77.67351 37161 ft 484 kts
2026-04-30 19:04 20.22081 -77.66496 37787 ft 486 kts
2026-04-30 19:04 20.28765 -77.65642 38511 ft 484 kts
2026-04-30 19:05 20.35456 -77.64786 39099 ft 485 kts
2026-04-30 19:05 20.42138 -77.63931 39810 ft 481 kts
2026-04-30 19:06 20.48796 -77.63078 40448 ft 478 kts
2026-04-30 19:06 20.52093 -77.62656 40613 ft 478 kts
2026-04-30 19:06 20.58743 -77.61803 40899 ft 479 kts
2026-04-30 19:07 20.68682 -77.60528 40904 ft 477 kts
2026-04-30 19:08 20.81952 -77.58823 40905 ft 477 kts
2026-04-30 19:09 20.91852 -77.57549 40907 ft 477 kts
2026-04-30 19:09 20.98482 -77.56694 40916 ft 476 kts
2026-04-30 19:10 21.11639 -77.54996 40930 ft 474 kts
2026-04-30 19:11 21.21479 -77.53724 40928 ft 472 kts
2026-04-30 19:12 21.28038 -77.52876 40940 ft 474 kts
2026-04-30 19:12 21.34586 -77.52027 40938 ft 469 kts
2026-04-30 19:13 21.47611 -77.50339 40921 ft 469 kts
2026-04-30 19:14 21.54060 -77.49501 40934 ft 468 kts
2026-04-30 19:14 21.60537 -77.48659 40910 ft 465 kts
2026-04-30 19:15 21.67012 -77.47817 40929 ft 465 kts
2026-04-30 19:15 21.76677 -77.46558 40922 ft 465 kts
2026-04-30 19:16 21.83157 -77.45715 40937 ft 465 kts
2026-04-30 19:17 21.92774 -77.44459 40930 ft 464 kts
2026-04-30 19:17 22.02429 -77.43198 40927 ft 462 kts
2026-04-30 19:18 22.12066 -77.41936 40936 ft 463 kts
2026-04-30 19:19 22.18484 -77.41096 40936 ft 462 kts
2026-04-30 19:19 22.28092 -77.39836 40944 ft 461 kts
2026-04-30 19:20 22.34527 -77.39523 40941 ft 459 kts 359°
2026-04-30 19:21 22.44135 -77.39256 40945 ft 460 kts 359°
2026-04-30 19:22 22.56992 -77.38888 40940 ft 459 kts 359°
2026-04-30 19:23 22.76176 -77.38333 40949 ft 459 kts 359°
2026-04-30 19:24 22.85818 -77.38052 40946 ft 460 kts 359°
2026-04-30 19:25 23.01806 -77.37587 40943 ft 459 kts 359°
2026-04-30 19:26 23.14528 -77.37212 40953 ft 456 kts 359°
2026-04-30 19:27 23.24076 -77.36925 40952 ft 455 kts 359°
2026-04-30 19:28 23.33607 -77.36640 40949 ft 455 kts 359°
2026-04-30 19:29 23.46274 -77.36260 40948 ft 454 kts 359°
2026-04-30 19:30 23.58946 -77.35983 40944 ft 452 kts 355°
2026-04-30 19:31 23.71483 -77.36815 40948 ft 450 kts 354°
2026-04-30 19:31 23.80865 -77.37394 40948 ft 450 kts 354°
2026-04-30 19:32 23.87196 -77.37775 40949 ft 451 kts 354°
2026-04-30 19:32 23.93469 -77.38148 40945 ft 450 kts 354°
2026-04-30 19:33 23.99704 -77.38518 40942 ft 448 kts 354°
2026-04-30 19:33 24.05945 -77.38888 40942 ft 449 kts 354°
2026-04-30 19:34 24.12202 -77.39259 40951 ft 448 kts 354°
2026-04-30 19:35 24.21541 -77.39812 40945 ft 447 kts 354°
2026-04-30 19:35 24.27791 -77.40183 40947 ft 447 kts 354°
2026-04-30 19:36 24.33971 -77.40549 40947 ft 445 kts 354°
2026-04-30 19:36 24.43252 -77.41100 40954 ft 446 kts 354°
2026-04-30 19:37 24.49475 -77.41470 40956 ft 443 kts 354°
2026-04-30 19:37 24.55646 -77.41838 40949 ft 444 kts 354°
2026-04-30 19:38 24.61828 -77.42207 40959 ft 445 kts 354°
2026-04-30 19:38 24.67999 -77.42574 40952 ft 442 kts 354°
2026-04-30 19:39 24.74153 -77.42942 40957 ft 443 kts 354°
2026-04-30 19:39 24.80316 -77.43310 40958 ft 441 kts 354°
2026-04-30 19:40 24.86427 -77.43676 40958 ft 439 kts 354°
2026-04-30 19:40 24.92563 -77.44044 40959 ft 439 kts 354°
2026-04-30 19:41 24.98691 -77.44411 40950 ft 441 kts 354°
2026-04-30 19:41 25.04833 -77.44782 40954 ft 440 kts 354°
2026-04-30 19:42 25.10768 -77.45147 40956 ft 438 kts 354°
2026-04-30 19:42 25.16880 -77.45523 40951 ft 440 kts 354°
2026-04-30 19:43 25.23022 -77.45901 40958 ft 441 kts 354°
2026-04-30 19:44 25.32208 -77.46468 40951 ft 440 kts 354°
2026-04-30 19:44 25.38313 -77.46844 40953 ft 439 kts 354°
2026-04-30 19:45 25.44445 -77.47223 40945 ft 440 kts 354°
2026-04-30 19:45 25.50557 -77.47601 40950 ft 438 kts 354°
2026-04-30 19:46 25.56651 -77.47978 40944 ft 439 kts 354°
2026-04-30 19:46 25.62800 -77.48359 40945 ft 440 kts 354°
2026-04-30 19:47 25.68919 -77.48738 40942 ft 440 kts 354°
2026-04-30 19:47 25.75042 -77.49098 40944 ft 440 kts 354°
2026-04-30 19:48 25.81169 -77.49456 40946 ft 439 kts 354°
2026-04-30 19:48 25.87263 -77.49812 40947 ft 439 kts 354°
2026-04-30 19:49 25.93353 -77.50170 40945 ft 439 kts 354°
2026-04-30 19:49 26.02561 -77.50711 40943 ft 440 kts 354°
2026-04-30 19:50 26.08705 -77.51073 40945 ft 441 kts 354°
2026-04-30 19:50 26.14838 -77.51434 40953 ft 440 kts 353°
2026-04-30 19:51 26.20973 -77.51795 40953 ft 438 kts 354°
2026-04-30 19:51 26.27066 -77.52155 40948 ft 440 kts 354°
2026-04-30 19:52 26.33207 -77.52518 40954 ft 439 kts 354°
2026-04-30 19:52 26.39281 -77.52878 40951 ft 439 kts 353°
2026-04-30 19:53 26.45426 -77.53243 40949 ft 440 kts 353°
2026-04-30 19:53 26.51546 -77.53605 40950 ft 438 kts 353°
2026-04-30 19:54 26.57659 -77.53968 40948 ft 441 kts 353°
2026-04-30 19:54 26.63780 -77.54331 40949 ft 438 kts 353°
2026-04-30 19:55 26.69882 -77.54694 40948 ft 439 kts 353°
2026-04-30 19:55 26.76009 -77.55060 40949 ft 440 kts 353°
2026-04-30 19:56 26.82141 -77.55425 40946 ft 440 kts 353°
2026-04-30 19:56 26.88257 -77.55791 40948 ft 440 kts 353°
2026-04-30 19:57 26.94357 -77.56155 40945 ft 439 kts 353°
2026-04-30 19:57 27.00477 -77.56521 40949 ft 438 kts 352°
2026-04-30 19:58 27.06588 -77.56887 40944 ft 438 kts 353°
2026-04-30 19:58 27.12670 -77.57252 40947 ft 440 kts 352°
2026-04-30 19:59 27.18815 -77.57620 40938 ft 439 kts 352°
2026-04-30 20:00 27.27923 -77.58168 40939 ft 439 kts 353°
2026-04-30 20:00 27.34051 -77.58536 40937 ft 439 kts 352°
2026-04-30 20:01 27.43225 -77.59089 40933 ft 439 kts 352°
2026-04-30 20:01 27.49337 -77.59458 40933 ft 439 kts 352°
2026-04-30 20:02 27.58462 -77.60009 40930 ft 439 kts 352°
2026-04-30 20:03 27.67608 -77.60563 40929 ft 438 kts 352°
2026-04-30 20:03 27.73749 -77.60935 40927 ft 438 kts 352°
2026-04-30 20:04 27.79858 -77.61306 40928 ft 439 kts 352°
2026-04-30 20:05 27.89008 -77.61862 40926 ft 438 kts 352°
2026-04-30 20:05 27.98148 -77.62418 40923 ft 437 kts 352°
2026-04-30 20:06 28.04268 -77.62791 40926 ft 436 kts 352°
2026-04-30 20:06 28.10314 -77.63160 40916 ft 437 kts 352°
2026-04-30 20:07 28.16435 -77.63491 40918 ft 438 kts 352°
2026-04-30 20:08 28.25587 -77.63894 40916 ft 437 kts 352°
2026-04-30 20:08 28.31706 -77.64168 40918 ft 436 kts 352°
2026-04-30 20:09 28.37792 -77.64442 40916 ft 438 kts 352°
2026-04-30 20:09 28.46890 -77.64854 40914 ft 438 kts 352°
2026-04-30 20:10 28.55777 -77.65257 40906 ft 434 kts 352°
2026-04-30 20:11 28.64949 -77.65752 40912 ft 435 kts 352°
2026-04-30 20:11 28.70924 -77.66079 40903 ft 434 kts 352°
2026-04-30 20:12 28.79868 -77.66567 40903 ft 435 kts 352°
2026-04-30 20:13 28.85906 -77.66894 40903 ft 432 kts 351°
2026-04-30 20:13 28.91943 -77.67223 40894 ft 431 kts 351°
2026-04-30 20:14 28.97946 -77.67552 40895 ft 433 kts 351°
2026-04-30 20:14 29.03999 -77.67883 40895 ft 434 kts 351°
2026-04-30 20:15 29.10008 -77.68211 40896 ft 433 kts 351°
2026-04-30 20:15 29.16063 -77.68537 40904 ft 432 kts 351°
2026-04-30 20:16 29.22110 -77.68845 40896 ft 435 kts 351°
2026-04-30 20:16 29.28135 -77.69153 40895 ft 434 kts 351°
2026-04-30 20:17 29.34099 -77.69457 40886 ft 435 kts 351°
2026-04-30 20:17 29.40210 -77.69772 40883 ft 436 kts 351°
2026-04-30 20:18 29.45725 -77.70053 40881 ft 434 kts 351°
2026-04-30 20:18 29.51024 -77.70327 40877 ft 438 kts 351°
2026-04-30 20:19 29.57119 -77.70641 40875 ft 435 kts 351°
2026-04-30 20:19 29.63183 -77.70954 40877 ft 436 kts 351°
2026-04-30 20:20 29.69287 -77.71270 40871 ft 438 kts 351°
2026-04-30 20:20 29.73835 -77.71504 40871 ft 435 kts 350°
2026-04-30 20:21 29.79352 -77.71792 40871 ft 439 kts 350°
2026-04-30 20:21 29.85443 -77.72107 40868 ft 438 kts 350°
2026-04-30 20:22 29.91536 -77.72425 40865 ft 440 kts 350°
2026-04-30 20:22 29.97619 -77.72739 40869 ft 438 kts 350°
2026-04-30 20:23 30.03759 -77.73061 40864 ft 440 kts 350°
2026-04-30 20:23 30.09882 -77.73379 40865 ft 438 kts 349°
2026-04-30 20:24 30.16014 -77.73699 40872 ft 440 kts 349°
2026-04-30 20:24 30.22149 -77.74020 40868 ft 439 kts 349°
2026-04-30 20:25 30.31311 -77.74500 40868 ft 439 kts 349°
2026-04-30 20:26 30.40435 -77.74979 40866 ft 440 kts 349°
2026-04-30 20:26 30.49596 -77.75645 40866 ft 436 kts 348°
2026-04-30 20:27 30.61785 -77.76582 40863 ft 438 kts 348°
2026-04-30 20:28 30.73973 -77.77509 40861 ft 437 kts 348°
2026-04-30 20:30 30.89206 -77.78671 40858 ft 437 kts 348°
2026-04-30 20:31 31.07420 -77.80064 40857 ft 437 kts 347°
2026-04-30 20:32 31.22601 -77.81227 40846 ft 435 kts 347°
2026-04-30 20:33 31.31688 -77.81925 40843 ft 435 kts 347°
2026-04-30 20:34 31.40832 -77.82631 40843 ft 438 kts 347°
2026-04-30 20:35 31.49984 -77.83337 40845 ft 438 kts 347°
2026-04-30 20:35 31.59135 -77.84045 40846 ft 439 kts 347°
2026-04-30 20:36 31.65258 -77.84519 40849 ft 440 kts 347°
2026-04-30 20:37 31.74400 -77.85229 40845 ft 440 kts 347°
2026-04-30 20:37 31.80504 -77.85703 40846 ft 440 kts 347°
2026-04-30 20:38 31.86667 -77.86183 40849 ft 439 kts 347°
2026-04-30 20:38 31.92862 -77.86114 40860 ft 451 kts 354°
2026-04-30 20:39 32.02266 -77.85378 40845 ft 449 kts 354°
2026-04-30 20:40 32.11662 -77.84650 40843 ft 451 kts 354°
2026-04-30 20:40 32.17938 -77.84164 40851 ft 452 kts 354°
2026-04-30 20:41 32.27317 -77.83436 40845 ft 448 kts 354°
2026-04-30 20:41 32.33563 -77.82954 40838 ft 451 kts 354°
2026-04-30 20:42 32.39866 -77.82465 40848 ft 452 kts 354°
2026-04-30 20:43 32.49297 -77.81732 40845 ft 453 kts 353°
2026-04-30 20:43 32.55611 -77.81240 40838 ft 453 kts 353°
2026-04-30 20:44 32.65018 -77.80505 40844 ft 451 kts 353°
2026-04-30 20:45 32.77551 -77.79527 40843 ft 452 kts 353°
2026-04-30 20:45 32.83863 -77.79031 40832 ft 451 kts 353°
2026-04-30 20:46 32.96440 -77.78043 40845 ft 451 kts 353°
2026-04-30 20:47 33.05893 -77.77301 40843 ft 454 kts 353°
2026-04-30 20:48 33.15353 -77.76554 40857 ft 454 kts 353°
2026-04-30 20:48 33.21617 -77.76057 40849 ft 450 kts 353°
2026-04-30 20:49 33.27899 -77.75561 40853 ft 450 kts 353°
2026-04-30 20:50 33.37271 -77.74819 40852 ft 451 kts 353°
2026-04-30 20:50 33.43485 -77.74323 40856 ft 446 kts 353°
2026-04-30 20:51 33.49681 -77.73832 40847 ft 448 kts 353°
2026-04-30 20:51 33.59021 -77.73086 40848 ft 444 kts 353°
2026-04-30 20:52 33.65203 -77.72595 40840 ft 448 kts 353°
2026-04-30 20:53 33.74567 -77.71024 40837 ft 450 kts 359°
2026-04-30 20:53 33.80746 -77.69675 40838 ft 456 kts 359°
2026-04-30 20:54 33.90080 -77.67633 40854 ft 455 kts 359°
2026-04-30 20:55 33.99355 -77.65601 40854 ft 449 kts 358°
2026-04-30 20:55 34.05553 -77.64246 40853 ft 453 kts 359°
2026-04-30 20:56 34.14868 -77.62204 40857 ft 455 kts 359°
2026-04-30 20:57 34.24168 -77.60158 40858 ft 454 kts 359°
2026-04-30 20:57 34.30413 -77.58782 40857 ft 454 kts 358°
2026-04-30 20:58 34.39775 -77.56716 40850 ft 455 kts 358°
2026-04-30 20:58 34.45963 -77.55348 40862 ft 456 kts 358°
2026-04-30 20:59 34.52232 -77.53616 40866 ft 474 kts
2026-04-30 20:59 34.55365 -77.51984 40873 ft 487 kts 14°
2026-04-30 21:00 34.67472 -77.44715 40865 ft 485 kts 15°
2026-04-30 21:01 34.76575 -77.39245 40867 ft 491 kts 14°
2026-04-30 21:02 34.85788 -77.33698 40844 ft 495 kts 15°
2026-04-30 21:02 34.91923 -77.29994 40837 ft 491 kts 15°
2026-04-30 21:03 34.98080 -77.26279 40844 ft 498 kts 15°
2026-04-30 21:03 35.04290 -77.22521 40836 ft 496 kts 15°
2026-04-30 21:04 35.10487 -77.18767 40837 ft 498 kts 15°
2026-04-30 21:04 35.19838 -77.13090 40837 ft 500 kts 15°
2026-04-30 21:05 35.26084 -77.09286 40827 ft 498 kts 15°
2026-04-30 21:05 35.32279 -77.05509 40830 ft 498 kts 16°
2026-04-30 21:06 35.38492 -77.01719 40840 ft 501 kts 16°
2026-04-30 21:06 35.43684 -76.98543 40837 ft 502 kts 16°
2026-04-30 21:07 35.50975 -76.94076 40841 ft 502 kts 16°
2026-04-30 21:07 35.57227 -76.90237 40836 ft 499 kts 16°
2026-04-30 21:08 35.63480 -76.86427 40817 ft 500 kts 16°
2026-04-30 21:08 35.69710 -76.82645 40813 ft 502 kts 16°
2026-04-30 21:09 35.75994 -76.78820 40844 ft 505 kts 16°
2026-04-30 21:09 35.82306 -76.74966 40834 ft 502 kts 16°
2026-04-30 21:10 35.88578 -76.71136 40811 ft 505 kts 16°
2026-04-30 21:10 35.93789 -76.67838 40826 ft 505 kts 19°
2026-04-30 21:11 36.01011 -76.62935 40834 ft 508 kts 19°
2026-04-30 21:11 36.07170 -76.58754 40849 ft 508 kts 19°
2026-04-30 21:12 36.13364 -76.54555 40846 ft 509 kts 19°
2026-04-30 21:12 36.18532 -76.51045 40855 ft 506 kts 19°
2026-04-30 21:13 36.25771 -76.46130 40850 ft 511 kts 20°
2026-04-30 21:13 36.32039 -76.41865 40844 ft 510 kts 19°
2026-04-30 21:14 36.38233 -76.37643 40822 ft 509 kts 20°
2026-04-30 21:14 36.44461 -76.33392 40835 ft 513 kts 20°
2026-04-30 21:15 36.50716 -76.29114 40824 ft 512 kts 20°
2026-04-30 21:15 36.56939 -76.24849 40824 ft 511 kts 20°
2026-04-30 21:16 36.63155 -76.20583 40852 ft 513 kts 20°
2026-04-30 21:16 36.69392 -76.16294 40838 ft 513 kts 20°
2026-04-30 21:17 36.75575 -76.12034 40838 ft 513 kts 21°
2026-04-30 21:17 36.81794 -76.07742 40840 ft 513 kts 21°
2026-04-30 21:18 36.87987 -76.03459 40846 ft 511 kts 21°
2026-04-30 21:18 36.94243 -75.99125 40822 ft 514 kts 21°
2026-04-30 21:19 37.00486 -75.94791 40828 ft 512 kts 21°
2026-04-30 21:19 37.06699 -75.90478 40841 ft 513 kts 19°
2026-04-30 21:20 37.13264 -75.87402 40815 ft 498 kts
2026-04-30 21:20 37.19928 -75.85102 40828 ft 497 kts
2026-04-30 21:21 37.26569 -75.82810 40834 ft 498 kts
2026-04-30 21:22 37.36591 -75.79332 40824 ft 497 kts
2026-04-30 21:23 37.49923 -75.74686 40850 ft 500 kts
2026-04-30 21:23 37.59975 -75.71167 40847 ft 498 kts
2026-04-30 21:24 37.66698 -75.68808 40855 ft 498 kts
2026-04-30 21:24 37.73405 -75.66452 40851 ft 501 kts
2026-04-30 21:25 37.83395 -75.62650 40853 ft 507 kts 17°
2026-04-30 21:26 37.92519 -75.55457 40851 ft 518 kts 28°
2026-04-30 21:27 38.01414 -75.47678 40840 ft 519 kts 29°
2026-04-30 21:27 38.07384 -75.42503 40846 ft 517 kts 27°
2026-04-30 21:28 38.16441 -75.35154 40840 ft 518 kts 27°
2026-04-30 21:29 38.25787 -75.28532 40816 ft 500 kts 13°
2026-04-30 21:29 38.35297 -75.25988 40709 ft 439 kts
2026-04-30 21:30 38.41236 -75.23347 39249 ft 477 kts 26°
2026-04-30 21:31 38.46870 -75.12300 36230 ft 552 kts 88°
2026-04-30 21:31 38.45034 -75.02915 30946 ft 570 kts 128°
2026-04-30 21:32 38.40279 -74.97925 24257 ft 551 kts 166°
2026-04-30 21:32 38.35522 -74.97860 22919 ft 486 kts 207°
2026-04-30 21:32 38.33530 -75.00401 25583 ft 380 kts 258°
2026-04-30 21:32 38.34059 -75.03117 27580 ft 327 kts 308°
2026-04-30 21:33 38.35377 -75.04147 26631 ft 370 kts 340°
2026-04-30 21:33 38.39396 -74.98064 20578 ft 497 kts 112°
2026-04-30 21:33 38.37428 -74.95326 22382 ft 382 kts 172°
2026-04-30 21:34 38.35173 -74.95767 22220 ft 327 kts 227°
2026-04-30 21:34 38.36403 -75.00631 18342 ft 420 kts 342°
2026-04-30 21:34 38.38313 -75.00366 18604 ft 424 kts 23°
2026-04-30 21:35 38.40025 -74.97554 19115 ft 404 kts 83°
2026-04-30 21:35 38.38686 -74.93617 17490 ft 385 kts 161°
2026-04-30 21:35 38.36995 -74.93283 16426 ft 365 kts 201°
2026-04-30 21:35 38.35410 -74.96242 16089 ft 318 kts 282°
2026-04-30 21:36 38.36234 -74.97760 16173 ft 322 kts 322°
2026-04-30 21:36 38.39220 -74.97443 14990 ft 382 kts 38°
2026-04-30 21:37 38.37004 -74.91231 13639 ft 292 kts 211°
2026-04-30 21:37 38.35857 -74.93098 12724 ft 288 kts 265°
2026-04-30 21:37 38.36730 -74.95380 12384 ft 309 kts 323°
2026-04-30 21:37 38.38111 -74.95797 12545 ft 311 kts
2026-04-30 21:38 38.40330 -74.93418 11971 ft 356 kts 75°
2026-04-30 21:38 38.39888 -74.90404 11617 ft 352 kts 136°
2026-04-30 21:38 38.37861 -74.89345 11848 ft 303 kts 198°
2026-04-30 21:38 38.36745 -74.90188 11797 ft 284 kts 239°
2026-04-30 21:39 38.37259 -74.93198 11087 ft 319 kts 326°
2026-04-30 21:39 38.39437 -74.93037 10894 ft 336 kts 33°
2026-04-30 21:39 38.40333 -74.91462 10660 ft 340 kts 74°
2026-04-30 21:39 38.39282 -74.87989 9930 ft 333 kts 159°
2026-04-30 21:40 38.37867 -74.87728 9982 ft 295 kts 202°
2026-04-30 21:40 38.36649 -74.90110 9720 ft 268 kts 284°
2026-04-30 21:40 38.37386 -74.91402 9325 ft 293 kts 326°
2026-04-30 21:40 38.40013 -74.90746 9317 ft 326 kts 50°
2026-04-30 21:41 38.40391 -74.88011 9388 ft 324 kts 113°
2026-04-30 21:41 38.39502 -74.86552 9127 ft 318 kts 155°
2026-04-30 21:41 38.36983 -74.87084 8797 ft 286 kts 241°
2026-04-30 21:41 38.37004 -74.89397 8924 ft 278 kts 306°
2026-04-30 21:42 38.38834 -74.90131 8568 ft 316 kts 14°
2026-04-30 21:42 38.40011 -74.88938 8161 ft 346 kts 60°
2026-04-30 21:42 38.39433 -74.85410 7996 ft 311 kts 149°
2026-04-30 21:42 38.38129 -74.84911 7715 ft 289 kts 191°
2026-04-30 21:43 38.36593 -74.86306 7019 ft 285 kts 253°
2026-04-30 21:43 38.36958 -74.88614 7019 ft 275 kts 315°
2026-04-30 21:43 38.39297 -74.88773 6935 ft 291 kts 34°
2026-04-30 21:43 38.40094 -74.87325 6552 ft 316 kts 73°
2026-04-30 21:44 38.39647 -74.84668 6574 ft 313 kts 134°
2026-04-30 21:44 38.37820 -74.83736 6907 ft 280 kts 194°
2026-04-30 21:44 38.36344 -74.85071 6756 ft 262 kts 246°
2026-04-30 21:44 38.36527 -74.87767 7112 ft 239 kts 311°
2026-04-30 21:45 38.38096 -74.88553 6739 ft 266 kts
2026-04-30 21:45 38.39272 -74.87986 6464 ft 286 kts 35°
2026-04-30 21:45 38.40170 -74.84937 6709 ft 285 kts 103°
2026-04-30 21:45 38.39595 -74.83472 6754 ft 278 kts 136°
2026-04-30 21:46 38.37883 -74.82479 6329 ft 278 kts 186°
2026-04-30 21:46 38.36223 -74.83504 5960 ft 270 kts 238°
2026-04-30 21:46 38.36200 -74.86314 6237 ft 245 kts 308°
2026-04-30 21:46 38.37130 -74.87106 6229 ft 250 kts 343°
2026-04-30 21:47 38.38880 -74.86667 5869 ft 279 kts 34°
2026-04-30 21:47 38.39776 -74.83624 5792 ft 293 kts 103°
2026-04-30 21:47 38.39180 -74.82139 5905 ft 284 kts 136°
2026-04-30 21:47 38.36842 -74.81306 5700 ft 268 kts 204°
2026-04-30 21:48 38.35831 -74.82177 5498 ft 261 kts 237°
2026-04-30 21:48 38.35464 -74.84294 5457 ft 248 kts 287°
2026-04-30 21:48 38.36558 -74.85870 5536 ft 246 kts 337°
2026-04-30 21:48 38.38256 -74.85733 5341 ft 265 kts 26°
2026-04-30 21:49 38.39395 -74.83854 5186 ft 283 kts 75°
2026-04-30 21:49 38.39098 -74.81426 5235 ft 282 kts 124°
2026-04-30 21:49 38.37566 -74.80029 5175 ft 272 kts 173°
2026-04-30 21:49 38.35344 -74.80963 4884 ft 257 kts 237°
2026-04-30 21:50 38.34898 -74.82297 4842 ft 247 kts 268°
2026-04-30 21:50 38.35448 -74.84274 4868 ft 239 kts 316°
2026-04-30 21:50 38.36982 -74.84952 4775 ft 250 kts
2026-04-30 21:50 38.38842 -74.83152 4570 ft 273 kts 66°
2026-04-30 21:51 38.39009 -74.81563 4560 ft 277 kts 97°
2026-04-30 21:51 38.38106 -74.79453 4516 ft 275 kts 143°
2026-04-30 21:51 38.36352 -74.78708 4349 ft 267 kts 189°
2026-04-30 21:51 38.34762 -74.79677 4231 ft 252 kts 235°
2026-04-30 21:52 38.34254 -74.81654 4205 ft 237 kts 280°
2026-04-30 21:52 38.35066 -74.83398 4108 ft 235 kts 326°
2026-04-30 21:52 38.36667 -74.83785 3945 ft 247 kts 10°
2026-04-30 21:52 38.38341 -74.81825 3855 ft 264 kts 70°
2026-04-30 21:53 38.38441 -74.80263 3809 ft 269 kts 99°
2026-04-30 21:53 38.37532 -74.78224 3647 ft 272 kts 142°
2026-04-30 21:53 38.35787 -74.77418 3498 ft 265 kts 186°
2026-04-30 21:53 38.34155 -74.78226 3447 ft 248 kts 229°
2026-04-30 21:54 38.33496 -74.80785 3307 ft 231 kts 286°
2026-04-30 21:54 38.33981 -74.81968 3163 ft 232 kts 314°
2026-04-30 21:54 38.35456 -74.82809 3026 ft 239 kts 357°
2026-04-30 21:54 38.36995 -74.82071 3028 ft 246 kts 40°
2026-04-30 21:55 38.37775 -74.80146 2910 ft 258 kts 81°
2026-04-30 21:55 38.37378 -74.77898 2669 ft 270 kts 123°
2026-04-30 21:55 38.35914 -74.76455 2605 ft 265 kts 165°
2026-04-30 21:55 38.34163 -74.76508 2640 ft 249 kts 207°
2026-04-30 21:56 38.32917 -74.77891 2440 ft 240 kts 248°
2026-04-30 21:56 38.32717 -74.79939 2182 ft 235 kts 289°
2026-04-30 21:56 38.34159 -74.81815 2111 ft 230 kts 344°
2026-04-30 21:56 38.35221 -74.81838 2094 ft 232 kts 12°
2026-04-30 21:57 38.36796 -74.79965 1741 ft 256 kts 69°
2026-04-30 21:57 38.36894 -74.78442 1624 ft 265 kts 98°
2026-04-30 21:57 38.36020 -74.76440 1746 ft 258 kts 140°
2026-04-30 21:57 38.34401 -74.75620 1657 ft 254 kts 181°
2026-04-30 21:58 38.32745 -74.76298 1341 ft 255 kts 222°
2026-04-30 21:58 38.31846 -74.78152 1277 ft 243 kts 264°
2026-04-30 21:58 38.32124 -74.80140 1301 ft 229 kts 305°
2026-04-30 21:58 38.33378 -74.81316 1047 ft 232 kts 347°
2026-04-30 21:59 38.34985 -74.81071 745 ft 242 kts 28°
2026-04-30 21:59 38.36068 -74.79492 782 ft 240 kts 69°
2026-04-30 21:59 38.36056 -74.77404 742 ft 243 kts 110°
2026-04-30 22:00 38.32671 -74.75594 404 ft 248 kts 205°
2026-04-30 22:00 38.31197 -74.79045 71 ft 243 kts 283°
2026-04-30 22:00 38.31525 -74.80376 96 ft 230 kts 294°
2026-04-30 22:01 38.32280 -74.82071 354 ft 209 kts 311°
2026-04-30 22:01 38.33339 -74.83266 259 ft 205 kts 331°
2026-04-30 22:01 38.34598 -74.83874 7 ft 177 kts 355°
2026-04-30 22:01 38.35519 -74.83994 4 ft 61 kts 337°
2026-04-30 22:02 38.35732 -74.84049 3 ft 13 kts
2026-04-30 22:02 38.35794 -74.84055 3 ft 6 kts
2026-04-30 22:02 38.35827 -74.84052 4 ft 3 kts 19°
2026-04-30 22:02 38.35854 -74.84045 4 ft 2 kts 30°
2026-04-30 22:03 38.35863 -74.84041 4 ft 2 kts 33°
2026-04-30 22:03 38.35876 -74.84033 4 ft 1 kts 37°
2026-04-30 22:03 38.35885 -74.84026 4 ft 1 kts 39°
2026-04-30 22:03 38.35893 -74.84020 4 ft 1 kts 38°
2026-04-30 22:04 38.35900 -74.84014 4 ft 1 kts 37°
2026-04-30 22:04 38.35906 -74.84009 4 ft 0 kts 35°
2026-04-30 22:04 38.35916 -74.84000 4 ft 0 kts 32°
2026-04-30 22:05 38.35920 -74.83996 4 ft 0 kts 31°
2026-04-30 22:05 38.35924 -74.83992 4 ft 0 kts 31°
2026-04-30 22:05 38.35927 -74.83990 4 ft 0 kts 33°
2026-04-30 22:05 38.35931 -74.83987 4 ft 0 kts 34°
2026-04-30 22:06 38.35935 -74.83984 4 ft 0 kts 38°
2026-04-30 22:06 38.35940 -74.83981 4 ft 0 kts 43°
2026-04-30 22:06 38.35942 -74.83980 4 ft 0 kts 46°
2026-04-30 22:07 38.35944 -74.83978 4 ft 0 kts 47°
2026-04-30 22:07 38.35946 -74.83976 4 ft 0 kts 47°
2026-04-30 22:07 38.35948 -74.83974 4 ft 0 kts 45°
2026-04-30 22:07 38.35949 -74.83972 4 ft 0 kts 41°
2026-04-30 22:08 38.35950 -74.83970 4 ft 0 kts 37°
2026-04-30 22:08 38.35951 -74.83968 4 ft 0 kts 33°
2026-04-30 22:08 38.35952 -74.83966 4 ft 0 kts 31°
2026-04-30 22:08 38.35953 -74.83965 4 ft 0 kts 30°
2026-04-30 22:09 38.35954 -74.83964 4 ft 0 kts 32°
2026-04-30 22:09 38.35955 -74.83963 4 ft 0 kts 35°
2026-04-30 22:09 38.35957 -74.83963 4 ft 0 kts 39°
2026-04-30 22:09 38.35958 -74.83963 4 ft 0 kts 43°
2026-04-30 22:10 38.35959 -74.83962 4 ft 0 kts 45°
2026-04-30 22:10 38.35960 -74.83961 4 ft 0 kts 45°
2026-04-30 22:10 38.35960 -74.83959 4 ft 0 kts 38°
2026-04-30 22:11 38.35961 -74.83956 4 ft 0 kts 29°
2026-04-30 22:11 38.35961 -74.83955 4 ft 0 kts 26°
2026-04-30 22:12 38.35961 -74.83954 4 ft 0 kts 24°
2026-04-30 22:12 38.35962 -74.83954 4 ft 0 kts 25°
2026-04-30 22:12 38.35963 -74.83955 4 ft 0 kts 30°
2026-04-30 22:13 38.35964 -74.83956 4 ft 0 kts 39°
2026-04-30 22:13 38.35965 -74.83957 4 ft 0 kts 44°
2026-04-30 22:13 38.35965 -74.83958 4 ft 0 kts 48°
2026-04-30 22:14 38.35965 -74.83959 4 ft 0 kts 50°
2026-04-30 22:14 38.35964 -74.83959 4 ft 0 kts 44°
2026-04-30 22:15 38.35963 -74.83958 4 ft 0 kts 39°
2026-04-30 22:15 38.35962 -74.83958 4 ft 0 kts 31°
2026-04-30 22:15 38.35961 -74.83958 4 ft 0 kts 29°
2026-04-30 22:16 38.35961 -74.83959 4 ft 0 kts 32°
2026-04-30 22:17 38.35961 -74.83963 4 ft 0 kts 44°
2026-04-30 22:17 38.35961 -74.83964 4 ft 0 kts 45°
2026-04-30 22:17 38.35960 -74.83965 4 ft 0 kts 41°
2026-04-30 22:18 38.35959 -74.83965 4 ft 0 kts 38°
2026-04-30 22:18 38.35957 -74.83965 4 ft 0 kts 30°
2026-04-30 22:19 38.35956 -74.83965 4 ft 0 kts 27°
2026-04-30 22:19 38.35955 -74.83966 4 ft 0 kts 28°
2026-04-30 22:19 38.35954 -74.83968 4 ft 0 kts 32°
2026-04-30 22:20 38.35954 -74.83970 4 ft 0 kts 35°
2026-04-30 22:20 38.35954 -74.83974 4 ft 0 kts 41°
2026-04-30 22:20 38.35954 -74.83975 4 ft 0 kts 44°
2026-04-30 22:21 38.35954 -74.83977 4 ft 0 kts 46°
2026-04-30 22:21 38.35954 -74.83978 4 ft 0 kts 46°
2026-04-30 22:21 38.35954 -74.83979 4 ft 0 kts 40°
2026-04-30 22:22 38.35953 -74.83980 4 ft 0 kts 36°
2026-04-30 22:22 38.35952 -74.83980 4 ft 0 kts 32°
2026-04-30 22:22 38.35952 -74.83981 4 ft 0 kts 29°
2026-04-30 22:23 38.35952 -74.83983 4 ft 0 kts 28°
2026-04-30 22:23 38.35952 -74.83984 4 ft 0 kts 28°
2026-04-30 22:23 38.35952 -74.83985 4 ft 0 kts 28°
2026-04-30 22:23 38.35952 -74.83987 4 ft 0 kts 28°
2026-04-30 22:24 38.35952 -74.83988 4 ft 0 kts 30°
2026-04-30 22:24 38.35953 -74.83990 4 ft 0 kts 31°
2026-04-30 22:24 38.35953 -74.83992 4 ft 0 kts 33°
2026-04-30 22:24 38.35954 -74.83993 4 ft 0 kts 35°
2026-04-30 22:25 38.35955 -74.83995 4 ft 0 kts 37°
2026-04-30 22:25 38.35955 -74.83997 4 ft 0 kts 39°
2026-04-30 22:25 38.35956 -74.83999 4 ft 0 kts 40°
2026-04-30 22:25 38.35957 -74.84000 4 ft 0 kts 41°
2026-04-30 22:26 38.35958 -74.84002 4 ft 0 kts 38°
2026-04-30 22:26 38.35958 -74.84003 4 ft 0 kts 35°
2026-04-30 22:26 38.35959 -74.84003 4 ft 0 kts 32°
2026-04-30 22:27 38.35959 -74.84004 4 ft 0 kts 30°
2026-04-30 22:27 38.35959 -74.84006 4 ft 0 kts 29°
2026-04-30 22:27 38.35960 -74.84009 4 ft 0 kts 33°
2026-04-30 22:28 38.35962 -74.84012 4 ft 0 kts 39°
2026-04-30 22:28 38.35963 -74.84013 4 ft 0 kts 42°
2026-04-30 22:29 38.35965 -74.84017 4 ft 0 kts 44°
2026-04-30 22:29 38.35965 -74.84019 4 ft 0 kts 43°
2026-04-30 22:30 38.35966 -74.84021 4 ft 0 kts 34°
2026-04-30 22:31 38.35966 -74.84023 4 ft 0 kts 30°
2026-04-30 22:32 38.35968 -74.84028 4 ft 0 kts 37°
2026-04-30 22:32 38.35970 -74.84032 4 ft 0 kts 43°
2026-04-30 22:33 38.35972 -74.84035 4 ft 0 kts 41°
2026-04-30 22:33 38.35972 -74.84036 4 ft 0 kts 32°
2026-04-30 22:34 38.35972 -74.84038 4 ft 0 kts 28°
2026-04-30 22:35 38.35974 -74.84041 4 ft 0 kts 35°
2026-04-30 22:36 38.35977 -74.84046 4 ft 0 kts 47°
2026-04-30 22:36 38.35978 -74.84048 4 ft 0 kts 48°
2026-04-30 22:37 38.35979 -74.84050 4 ft 0 kts 46°
2026-04-30 22:37 38.35979 -74.84051 4 ft 0 kts 45°
2026-04-30 22:37 38.35980 -74.84053 4 ft 0 kts 44°
2026-04-30 22:38 38.35981 -74.84055 4 ft 0 kts 44°
2026-04-30 22:38 38.35982 -74.84057 4 ft 0 kts 44°
2026-04-30 22:39 38.35983 -74.84058 4 ft 0 kts 44°
2026-04-30 22:39 38.35984 -74.84061 4 ft 0 kts 45°
2026-04-30 22:40 38.35984 -74.84062 4 ft 0 kts 38°
2026-04-30 22:41 38.35984 -74.84064 4 ft 0 kts 32°
2026-04-30 22:41 38.35985 -74.84067 4 ft 0 kts 34°
2026-04-30 22:42 38.35989 -74.84074 4 ft 0 kts 49°
2026-04-30 22:43 38.35990 -74.84076 4 ft 0 kts 52°
2026-04-30 22:43 38.35991 -74.84077 4 ft 0 kts 50°
2026-04-30 22:44 38.35992 -74.84079 4 ft 0 kts 46°
2026-04-30 22:45 38.35993 -74.84082 4 ft 0 kts 41°
2026-04-30 22:45 38.35994 -74.84084 4 ft 0 kts 44°
2026-04-30 22:46 38.35996 -74.84087 4 ft 0 kts 47°
2026-04-30 22:47 38.35998 -74.84090 4 ft 0 kts 44°
2026-04-30 22:47 38.35998 -74.84091 4 ft 0 kts 36°
2026-04-30 22:48 38.35998 -74.84093 4 ft 0 kts 32°
2026-04-30 22:49 38.36000 -74.84097 4 ft 0 kts 43°
2026-04-30 22:49 38.36004 -74.84102 4 ft 0 kts 56°
2026-04-30 22:50 38.36006 -74.84106 4 ft 0 kts 54°
2026-04-30 22:51 38.36007 -74.84106 4 ft 0 kts 51°
2026-04-30 22:51 38.36008 -74.84108 4 ft 0 kts 49°
2026-04-30 22:52 38.36008 -74.84109 4 ft 0 kts 48°
2026-04-30 22:52 38.36010 -74.84111 4 ft 0 kts 49°
2026-04-30 22:53 38.36011 -74.84113 4 ft 0 kts 50°
2026-04-30 22:53 38.36012 -74.84115 4 ft 0 kts 51°
2026-04-30 22:53 38.36012 -74.84116 4 ft 0 kts 52°
2026-04-30 22:54 38.36014 -74.84118 4 ft 0 kts 52°
2026-04-30 22:55 38.36015 -74.84120 4 ft 0 kts 52°
2026-04-30 22:55 38.36016 -74.84122 4 ft 0 kts 50°
2026-04-30 22:56 38.36017 -74.84123 4 ft 0 kts 49°
2026-04-30 22:56 38.36018 -74.84126 4 ft 0 kts 50°
2026-04-30 22:57 38.36019 -74.84129 4 ft 0 kts 52°
2026-04-30 22:57 38.36021 -74.84131 4 ft 0 kts 54°
2026-04-30 22:58 38.36022 -74.84132 4 ft 0 kts 55°
2026-04-30 22:59 38.36024 -74.84135 4 ft 0 kts 54°
2026-04-30 22:59 38.36026 -74.84138 4 ft 0 kts 54°